DAL1531 KATL-KABQ

Flight info

Callsign DAL1531
Flight time N/A
Altitude 32000
Route CUTTN2 HANKO MEMFS TUL IFI KIIDD COLTR4
Aircraft B739/M-SDE2E3FGHIRWXY/LB1

Departure

Time 2026-05-07 22:31
Airport Hartsfield Jackson Atlanta International Airport (KATL)

Arrival

Time N/A
Airport Albuquerque International Sunport (KABQ)
Time Latitude Longitude Altitude Speed Heading
2026-05-07 22:08 33.64380 -84.43874 1005 ft 0 kts 271°
2026-05-07 22:21 33.64380 -84.43855 1005 ft 4 kts 269°
2026-05-07 22:21 33.64378 -84.43823 1005 ft 4 kts 285°
2026-05-07 22:21 33.64367 -84.43796 1005 ft 4 kts 324°
2026-05-07 22:22 33.64349 -84.43787 1005 ft 0 kts 360°
2026-05-07 22:24 33.64350 -84.43787 1005 ft 1 kts 360°
2026-05-07 22:25 33.64371 -84.43787 1005 ft 6 kts 359°
2026-05-07 22:25 33.64424 -84.43766 1005 ft 11 kts 39°
2026-05-07 22:25 33.64458 -84.43667 1005 ft 16 kts 85°
2026-05-07 22:25 33.64459 -84.43514 1005 ft 21 kts 90°
2026-05-07 22:26 33.64459 -84.43323 1006 ft 25 kts 90°
2026-05-07 22:26 33.64461 -84.43110 1006 ft 25 kts 90°
2026-05-07 22:26 33.64461 -84.42908 1005 ft 23 kts 89°
2026-05-07 22:26 33.64466 -84.42717 1005 ft 23 kts 85°
2026-05-07 22:27 33.64469 -84.42532 1005 ft 22 kts 90°
2026-05-07 22:27 33.64469 -84.42348 1005 ft 23 kts 89°
2026-05-07 22:27 33.64516 -84.42167 1005 ft 23 kts 59°
2026-05-07 22:27 33.64544 -84.41986 1005 ft 22 kts 89°
2026-05-07 22:28 33.64543 -84.41803 1005 ft 22 kts 90°
2026-05-07 22:28 33.64542 -84.41611 1006 ft 24 kts 89°
2026-05-07 22:28 33.64543 -84.41404 1006 ft 25 kts 90°
2026-05-07 22:28 33.64543 -84.41204 1006 ft 23 kts 89°
2026-05-07 22:29 33.64543 -84.41014 1005 ft 22 kts 90°
2026-05-07 22:29 33.64544 -84.40830 1005 ft 22 kts 89°
2026-05-07 22:29 33.64547 -84.40655 1005 ft 19 kts 84°
2026-05-07 22:29 33.64574 -84.40582 1004 ft 6 kts 42°
2026-05-07 22:30 33.64614 -84.40567 1004 ft 7 kts
2026-05-07 22:30 33.64672 -84.40589 1003 ft 10 kts 307°
2026-05-07 22:30 33.64681 -84.40673 1003 ft 11 kts 269°
2026-05-07 22:30 33.64680 -84.40966 1006 ft 68 kts 269°
2026-05-07 22:31 33.64679 -84.41790 1006 ft 127 kts 270°
2026-05-07 22:31 33.64681 -84.43053 1039 ft 170 kts 272°
2026-05-07 22:31 33.64673 -84.44529 1541 ft 179 kts 271°
2026-05-07 22:31 33.64694 -84.46025 2346 ft 176 kts 278°
2026-05-07 22:32 33.64949 -84.47562 2671 ft 201 kts 285°
2026-05-07 22:32 33.65293 -84.49286 2898 ft 222 kts 284°
2026-05-07 22:32 33.65666 -84.51190 3147 ft 245 kts 284°
2026-05-07 22:32 33.66052 -84.53216 3890 ft 248 kts 283°
2026-05-07 22:33 33.66429 -84.55230 4795 ft 248 kts 282°
2026-05-07 22:33 33.66808 -84.57262 5597 ft 248 kts 281°
2026-05-07 22:33 33.67172 -84.59262 6519 ft 245 kts 280°
2026-05-07 22:33 33.67516 -84.61275 7309 ft 246 kts 280°
2026-05-07 22:34 33.67856 -84.63293 8070 ft 247 kts 280°
2026-05-07 22:34 33.68197 -84.65321 8857 ft 248 kts 280°
2026-05-07 22:34 33.68539 -84.67352 9636 ft 249 kts 280°
2026-05-07 22:34 33.68889 -84.69422 10256 ft 256 kts 280°
2026-05-07 22:35 33.69258 -84.71611 10433 ft 279 kts 280°
2026-05-07 22:35 33.69657 -84.73977 10594 ft 300 kts 281°